User: anonymous   Login
Location: Hickory_CSC
(35.7330°N, 81.3330°W)
Time: 18:21:43
(UTC-04:00)
Language:

Cosmos 1356 Rocket - Orbit

View from above orbital plane
View from above orbital plane
View from above satellite
View from above satellite

Ground track
Ground track

The orbit data is extracted from the following two-line orbital elements,

1 13154U 82039B   15184.43505077  .00000729  00000-0  59579-4 0  9993
2 13154 081.1848 316.9815 0042124 097.2786 263.3224 14.97488562796739
Epoch (UTC): 03 July 2015 10:26:28
Eccentricity: 0.0042124
inclination: 81.1848°
perigee height: 545 km
apogee height: 604 km
right ascension of ascending node: 316.9815°
argument of perigee: 97.2786°
revolutions per day: 14.97488562
mean anomaly at epoch: 263.3224°
orbit number at epoch: 79673

The dashed part of the orbit path shows where the satellite is in the earth's shadow,  

DLR